World > North America > United States > Ohio > Vincent

Hourly Vincent, OH Regional Weather

Feedback E-mail the Weather

Quick WX

Vincent, OH Weather Maps

°F °C°F °C
Vincent Weather Map
UTC Time: 8/8/2022, 10:43
Your Time:

Vincent, OH Regional Weather

Expires:202208081100;;669854
ASUS41 KCLE 081012
RWRCLE
OHIO REGIONAL WEATHER ROUNDUP
NATIONAL WEATHER SERVICE WILMINGTON, OH
600 AM EDT MON AUG 08 2022

NOTE: "FAIR" INDICATES FEW OR NO CLOUDS BELOW 12,000 FEET WITH NO
SIGNIFICANT WEATHER AND/OR OBSTRUCTIONS TO VISIBILITY.


OHZ036-037-039>041-045>050-054>059-063>069-073>076-082>088-081100-
  CENTRAL AND SOUTHEAST OHIO
  
CITY           SKY/WX    TMP DP  RH WIND       PRES   REMARKS
COLUMBUS       FAIR      72  70  93 S5        30.06F                  
OSU AIRPORT    FAIR      75  71  87 S5        30.05F                  
BOLTON FIELD   FAIR      70  70  98 S5        30.07S                  
RICKENBACK AFB FAIR      71  69  92 S8        30.06F                  
NEWARK         MOCLDY    74  69  85 S7        30.06F                  
MARION         NOT AVBL                                               
LANCASTER      FAIR      72  69  90 S6        30.08S                  
ZANESVILLE     FAIR      71  69  93 S5        30.07F                  
NEW PHILLY     FAIR      71  70  96 CALM      30.06F                  
$$
  

SKY/WX - Weather  TMP - Temperature  DP - Dew Point  RH - Humidity
WIND - Wind Direction/Speed PRES - Barometric Pressure VSB - Visibility
WCI - Wind Chill Index E13G22 Wind - East Wind 13 mph/Gusts of 22 mph

Trending Headlines

Vincent Radar Loop



Vincent Quick Facts


National Two Day Weather Forecast


E-mail the Vincent Weather Forecast

Voice your opinion or tell us about page issues...